カタログに戻る

NSAT 110

運用中通信GEO
NORAD 26559·PAYLOAD·🇯🇵 Japan

打ち上げ Oct 6, 2000 から Guiana Space Centre

Loading…

TLE

最新Source: Space-Track

元期: Sep 14, 2026, 13:18 UTC

1 26559U 00060A   26257.55434413  .00000023  00000-0  00000-0 0  9999
2 26559   7.0167  69.0940 0005647  54.2379 325.1590  0.99178111 94713

AllMySatでNSAT 110をリアルタイム追跡

Download on the App Store